BEIDOU-3 M16 (C35)

Last updated on Wed Aug 26 2026 00:04:16 GMT+0000 (Coordinated Universal Time)

1 43647U 18078A 26237.28597446 -.00000026 00000+0 00000+0 0 9990 2 43647 54.0243 297.5586 0006082 35.1883 324.9329 1.86232488 53440
UTC large
Height (km)
Speed (km/s)
/
Latitude / Longitude
Inclination (degrees)
Orbital Period (minutes)
Azimuth
Elevation
Range (km)
Doppler Factor

Next 0 passes for location: London (51.5072 / 0.1276)

No passes found over London.
BEIDOU-3 M16 (C35)